GFSMW_850_temp_096.txt.gz
Temp
10 9 10 11 12 13 14 14 14 14 13 13 13 12 13 13 12 12 12 12 12 12 12 11 11 11 12 13 14 11 11 12 12 12 12 13 13 13 13 13 13 13 13
8 8 10 10 12 13 13 14 13 13 12 12 12 11 11 12 12 12 12 12 12 12 12 11 11 12 11 11 11 11 11 12 12 12 12 12 13 13 13 13 13 13 13
7 7 7 9 12 13 13 13 12 12 12 11 11 11 11 11 11 12 12 12 12 13 11 12 11 12 11 12 11 11 12 12 13 12 12 12 12 13 14 13 13 13 14
7 7 6 8 8 11 11 11 11 11 12 11 10 10 10 10 10 12 12 11 11 12 12 11 11 11 11 11 12 11 13 12 13 12 12 12 13 13 13 14 14 13 13
6 6 6 6 7 8 8 8 9 9 9 10 10 10 10 9 10 12 10 10 11 11 12 11 10 10 10 11 11 10 12 12 12 12 12 12 12 13 13 13 13 13 14
5 5 6 6 6 7 8 8 8 9 9 9 9 9 9 10 10 10 10 10 11 11 11 10 10 10 10 10 10 10 11 13 13 12 13 12 12 12 12 13 13 12 13
4 4 5 5 5 6 7 7 8 8 9 8 9 9 9 10 10 10 9 10 10 10 10 9 10 9 9 10 10 10 10 11 11 11 11 11 11 11 11 11 11 11 12
3 3 3 4 5 4 4 5 6 6 8 8 8 8 8 9 9 9 9 10 9 10 10 10 10 10 9 9 9 10 10 10 10 11 11 10 10 10 11 11 10 10 10
3 2 2 3 3 3 3 4 6 6 6 6 8 8 8 8 9 8 8 9 9 9 9 9 9 9 10 10 10 11 11 10 10 9 9 9 10 10 11 10 10 10 10
2 2 2 3 3 4 4 5 5 6 6 7 8 8 9 8 8 8 9 8 8 9 9 9 9 9 9 9 9 9 9 9 9 9 9 9 10 11 10 10 10 10 9
2 2 3 3 3 4 5 6 6 6 7 6 7 7 7 7 7 8 8 8 8 8 8 8 8 8 8 8 8 9 9 9 9 9 9 9 9 9 9 9 9 9 9
3 3 3 3 4 4 4 5 5 6 6 5 6 6 6 6 7 7 6 7 7 7 8 8 8 8 8 8 8 8 8 8 9 9 9 9 8 9 9 9 9 9 9
3 3 3 3 4 4 4 4 5 5 5 5 5 6 6 6 6 6 6 6 6 6 6 6 7 7 8 7 7 7 8 8 7 7 7 7 7 8 8 8 8 9 9
4 4 4 3 4 4 4 5 5 5 5 5 5 5 5 5 5 5 6 6 6 6 6 6 6 5 5 6 6 6 6 6 6 7 5 6 6 7 7 7 8 8 8
4 4 4 4 4 4 4 4 4 4 4 4 4 4 4 4 3 4 4 4 4 4 4 5 5 5 5 5 5 4 5 5 5 5 5 5 6 6 6 6 7 7 8
5 4 4 4 4 4 4 4 4 4 4 4 4 3 3 3 3 3 3 3 3 3 2 3 3 3 3 3 4 4 4 5 4 4 4 4 4 5 6 6 6 7 7
5 4 4 4 4 3 3 4 4 4 3 3 3 2 2 2 2 2 2 2 2 2 2 2 2 2 2 2 2 2 2 3 3 3 3 4 3 3 4 6 6 6 6
5 4 4 4 3 4 3 3 3 3 3 2 2 1 1 1 1 1 1 0 0 0 0 0 0 0 1 1 1 1 2 2 2 2 2 1 2 2 3 3 4 4 5
5 4 4 3 3 3 2 2 1 1 1 1 1 0 -0 -0 -0 -0 -0 -1 -1 -1 -1 -2 -2 -2 -1 -1 -1 -1 -1 -0 0 1 1 1 0 0 1 2 3 3 3
4 3 3 3 2 1 2 1 1 1 1 1 1 1 -0 -1 -1 -1 -1 -2 -2 -2 -2 -2 -2 -2 -2 -2 -2 -2 -2 -2 -2 -1 -1 -1 -1 -1 0 1 1 2 3
3 3 3 3 2 2 2 2 1 1 -0 -1 -1 -1 -2 -2 -2 -3 -3 -3 -3 -3 -3 -3 -3 -3 -3 -3 -3 -3 -3 -4 -4 -3 -2 -1 -2 -4 -2 -0 0 1 2
3 3 3 2 2 1 1 0 -0 -1 -1 -1 -2 -2 -2 -2 -3 -3 -4 -4 -4 -4 -4 -4 -4 -4 -4 -4 -4 -4 -5 -6 -6 -5 -4 -5 -3 -3 -4 -2 -1 -0 1
3 3 2 2 1 0 -0 -1 -1 -1 -2 -2 -2 -3 -3 -3 -4 -4 -5 -5 -5 -5 -5 -5 -5 -4 -4 -4 -4 -5 -5 -6 -6 -6 -6 -6 -6 -5 -4 -4 -3 -1 -0
2 2 1 1 0 -0 -1 -2 -2 -3 -3 -3 -3 -3 -3 -4 -4 -5 -5 -5 -5 -6 -5 -6 -5 -5 -5 -5 -5 -5 -5 -6 -7 -7 -7 -7 -7 -6 -6 -4 -3 -2 -1
1 1 1 0 -0 -1 -1 -2 -3 -3 -3 -3 -4 -4 -5 -5 -5 -5 -6 -6 -6 -6 -6 -7 -7 -8 -7 -7 -7 -7 -7 -7 -7 -6 -7 -7 -7 -7 -6 -5 -4 -2 -2
1 0 -0 -1 -1 -1 -2 -3 -3 -4 -4 -5 -5 -6 -6 -6 -6 -7 -6 -6 -6 -6 -7 -7 -9 -9 -9 -8 -8 -8 -8 -8 -7 -7 -7 -7 -8 -7 -7 -6 -5 -4 -3

GFSMW_850_temp_099.txt.gz
Temp
7 9 9 10 10 9 10 12 13 13 13 13 13 13 14 14 13 13 12 12 12 12 12 12 12 11 11 11 11 12 12 12 11 12 13 12 12 13 13 13 13 13 13
8 7 7 7 9 9 11 12 13 13 13 13 13 12 12 12 12 12 12 12 12 12 12 12 11 11 11 11 11 11 11 11 11 11 10 10 11 13 13 13 13 13 13
7 7 7 7 8 7 8 12 12 13 12 12 12 12 11 11 11 11 12 12 12 12 12 12 11 11 11 11 11 11 11 11 10 11 11 11 11 12 14 14 14 13 13
6 6 6 7 7 7 10 12 12 12 12 12 11 11 10 10 10 10 10 12 12 12 12 12 11 11 12 11 11 11 11 10 10 10 11 11 12 13 13 14 14 14 14
6 5 5 6 6 7 9 10 10 10 9 10 10 9 9 9 10 11 12 10 11 11 11 11 11 11 11 11 10 10 9 9 10 10 10 11 12 12 12 13 14 14 14
4 4 4 5 6 6 8 8 9 8 8 8 9 9 9 9 9 11 10 10 11 11 11 10 11 11 10 10 10 10 10 9 9 10 10 10 11 11 12 12 12 13 14
3 3 3 3 4 5 6 6 7 7 7 8 8 8 9 9 9 9 9 10 10 10 10 11 10 10 10 10 10 10 10 9 9 9 9 9 10 11 11 11 11 11 12
2 2 2 2 3 3 4 4 4 4 5 6 7 8 8 8 8 8 8 9 9 9 9 9 9 9 10 9 9 9 9 9 9 9 10 9 10 10 11 10 10 10 10
2 2 2 2 2 3 3 2 2 4 4 6 6 6 6 6 7 8 8 8 9 8 8 9 9 9 9 9 9 9 9 9 10 9 9 10 10 10 10 10 10 10 9
1 1 2 2 3 3 4 5 5 5 5 5 6 7 7 8 8 8 8 9 9 9 9 9 8 8 8 8 9 9 9 9 9 9 9 9 10 10 10 9 10 9 9
1 2 2 3 3 3 4 4 5 5 6 6 7 6 6 7 7 7 7 7 7 7 8 8 8 9 8 8 8 8 8 9 9 9 9 9 9 9 9 9 9 9 9
2 2 2 2 3 4 4 5 5 5 6 6 6 6 6 6 6 6 6 6 7 7 7 7 7 7 7 7 7 7 8 8 8 8 8 8 8 8 8 8 8 8 9
3 3 3 3 4 4 5 5 4 4 4 5 5 5 5 5 5 5 5 5 5 5 5 6 6 6 7 7 7 7 7 7 7 7 7 7 7 7 7 7 8 8 8
4 3 3 3 4 4 4 4 4 4 4 4 4 4 4 4 4 4 4 4 4 4 4 4 4 4 4 4 5 5 5 5 5 6 6 6 5 5 5 6 6 7 7
4 4 4 4 4 4 4 4 4 4 4 4 4 3 3 3 3 3 3 3 3 3 3 3 3 3 4 4 4 4 4 4 4 5 5 4 4 4 4 5 6 6 6
5 4 4 4 4 4 4 4 4 4 3 3 3 2 2 2 2 2 2 2 2 2 2 2 2 2 2 2 2 3 3 4 4 4 4 4 4 4 3 3 4 5 5
5 5 4 4 4 4 4 3 3 3 2 2 2 2 2 2 2 1 1 1 1 0 0 0 0 0 0 -0 0 0 1 1 1 2 2 3 3 3 4 4 3 3 4
6 5 5 4 4 3 3 3 3 2 2 1 1 0 0 -0 -1 -1 -1 -1 -1 -1 -1 -1 -2 -1 -1 -1 -1 -1 -1 -1 -0 -0 -0 1 1 2 1 1 2 3 3
5 5 4 4 3 3 3 2 2 1 0 -0 -0 -0 -1 -1 -1 -1 -1 -2 -2 -2 -2 -2 -2 -2 -2 -2 -2 -2 -2 -2 -1 -1 -1 -1 -1 -0 0 -2 -1 1 2
5 4 4 4 3 2 1 1 1 0 -0 -0 -0 -1 -1 -1 -1 -2 -2 -3 -3 -3 -3 -3 -3 -3 -3 -3 -3 -3 -3 -3 -2 -2 -1 -1 -2 -2 -2 -3 -3 -1 -0
4 4 3 2 1 1 1 0 0 0 0 -0 -1 -1 -2 -2 -3 -3 -3 -3 -4 -4 -4 -4 -3 -4 -4 -4 -4 -4 -4 -4 -4 -4 -3 -3 -2 -3 -3 -3 -4 -3 -2
3 3 2 1 1 0 -0 -0 -0 -1 -1 -1 -2 -2 -3 -3 -4 -4 -4 -4 -5 -5 -5 -5 -4 -4 -5 -5 -5 -5 -5 -5 -6 -5 -5 -4 -4 -4 -5 -5 -5 -4 -3
2 2 1 1 1 0 0 -0 -1 -1 -1 -2 -2 -3 -3 -3 -4 -4 -5 -5 -5 -6 -6 -6 -5 -5 -5 -5 -5 -5 -6 -6 -6 -7 -7 -7 -7 -6 -5 -5 -5 -6 -5
2 2 2 1 1 -0 -1 -1 -2 -2 -3 -3 -3 -3 -3 -4 -4 -5 -5 -6 -6 -6 -6 -6 -7 -7 -8 -8 -7 -7 -7 -7 -7 -7 -7 -7 -7 -7 -8 -7 -6 -6 -5
2 2 1 0 -0 -1 -2 -2 -3 -3 -3 -4 -4 -4 -4 -4 -5 -5 -6 -6 -6 -7 -9 -9 -9 -9 -9 -9 -8 -8 -8 -7 -7 -7 -7 -7 -7 -7 -8 -8 -8 -7 -6
1 1 0 -0 -1 -2 -2 -3 -3 -4 -4 -5 -5 -5 -5 -6 -7 -7 -7 -7 -8 -9 -10 -10 -10 -9 -9 -9 -9 -9 -8 -8 -8 -8 -8 -7 -7 -7 -8 -8 -8 -7 -7

GFSMW_850_temp_105.txt.gz
Temp
9 8 8 7 7 7 7 9 8 9 9 10 10 10 10 11 11 11 12 12 12 12 11 11 11 11 11 12 11 12 12 12 12 12 12 11 12 12 12 13 12 13 13
7 6 6 6 6 6 7 8 8 9 10 10 10 10 11 11 11 11 11 12 12 13 11 11 11 11 11 11 11 11 12 11 12 12 11 11 11 11 11 12 12 13 13
5 5 4 5 5 6 7 6 7 8 8 9 9 10 10 12 11 11 12 12 11 11 11 11 11 11 11 11 12 12 12 11 11 11 11 11 11 12 11 12 13 12 13
5 4 4 4 4 5 5 6 6 7 7 8 9 10 10 10 10 10 10 10 10 10 10 10 10 10 11 11 11 11 12 11 11 11 11 11 11 11 12 12 11 11 11
3 3 3 3 4 4 5 5 5 6 7 7 10 11 11 10 9 9 9 9 10 10 11 10 10 10 10 11 11 11 11 11 11 11 11 11 11 11 11 12 13 11 11
3 3 3 3 3 3 4 4 5 6 6 7 9 10 10 8 9 8 9 9 9 9 9 9 9 9 10 10 10 10 10 11 11 11 11 11 10 10 10 10 11 11 11
3 3 3 2 2 3 3 3 4 5 6 6 7 7 7 8 8 8 8 8 8 8 8 8 9 8 9 10 10 10 10 10 10 10 11 10 10 10 10 10 10 9 10
2 2 3 3 3 3 3 3 4 5 5 6 7 6 6 6 6 8 5 7 5 8 8 8 8 7 8 8 9 9 10 10 10 10 10 10 10 10 9 9 9 9 9
2 2 2 3 3 3 3 3 4 5 5 5 5 5 6 6 6 6 5 5 7 6 7 7 7 7 7 7 7 7 7 8 9 9 9 9 9 9 9 9 9 8 8
1 2 2 3 3 3 4 4 4 4 4 4 4 5 5 6 5 4 5 5 6 7 7 6 7 7 7 7 7 6 6 7 7 8 8 8 8 8 8 8 8 8 8
2 3 4 3 4 4 3 3 3 3 4 4 4 4 5 4 4 4 5 5 5 5 5 5 6 6 5 6 6 6 5 5 6 7 7 7 7 7 7 8 8 8 8
3 3 3 3 3 3 3 3 3 3 4 3 3 3 4 4 4 4 4 4 4 5 5 5 4 4 5 4 5 5 5 5 6 6 6 5 5 6 7 7 7 7 8
4 4 5 4 4 3 2 2 3 3 3 3 2 3 3 3 3 4 3 3 4 4 4 4 4 4 3 4 4 3 4 4 4 4 5 5 6 6 6 7 5 6 6
6 6 6 5 4 3 3 2 2 3 3 3 2 3 3 2 2 2 2 3 3 3 3 3 2 2 2 2 2 3 3 3 3 3 3 4 4 4 5 5 6 5 5
7 7 6 6 5 3 3 3 4 3 3 3 3 3 3 3 2 2 2 1 1 1 1 1 1 1 1 -0 1 1 1 1 1 2 2 2 2 2 3 3 3 4 4
8 7 6 5 4 4 2 3 3 3 3 2 2 2 2 2 2 2 2 2 1 1 1 1 1 1 0 1 0 1 1 1 1 0 -0 0 1 1 1 1 2 2 2
8 7 6 5 4 3 4 3 3 3 2 2 2 1 1 1 0 -0 -1 -2 -3 -3 -3 -4 -4 -4 -3 -3 -2 -2 -2 -2 -1 -1 -0 0 -1 -1 -2 -2 -0 0 0
8 7 6 5 4 4 4 3 3 2 2 1 1 1 1 0 -0 -0 -1 -2 -2 -3 -3 -3 -3 -3 -3 -3 -3 -3 -3 -3 -3 -3 -3 -4 -3 -2 -2 -1 -1 -1 -1
8 7 6 5 3 3 3 3 2 1 1 1 1 1 0 -1 -1 -2 -3 -3 -3 -3 -3 -3 -3 -3 -3 -3 -3 -4 -3 -3 -3 -4 -4 -4 -4 -4 -5 -3 -3 -2 -1
6 5 4 4 3 4 3 3 2 2 1 1 -0 -1 -1 -2 -2 -2 -2 -2 -3 -3 -3 -3 -3 -4 -4 -5 -6 -5 -5 -6 -5 -5 -4 -4 -4 -5 -5 -5 -5 -5 -5
6 5 5 4 3 3 3 2 1 1 0 -0 -1 -1 -2 -3 -3 -3 -3 -3 -3 -4 -4 -5 -5 -5 -5 -6 -6 -7 -7 -7 -7 -6 -5 -5 -5 -5 -6 -6 -6 -6 -6
6 5 4 4 3 3 2 1 1 -0 -1 -1 -2 -2 -3 -4 -4 -5 -5 -6 -6 -6 -6 -6 -6 -6 -6 -7 -7 -7 -7 -7 -8 -7 -7 -7 -6 -6 -6 -6 -6 -6 -6
5 4 4 3 3 2 1 0 -1 -1 -1 -2 -2 -3 -4 -5 -6 -6 -6 -7 -7 -7 -7 -7 -7 -7 -7 -7 -8 -8 -8 -8 -8 -8 -7 -7 -7 -7 -7 -6 -6 -6 -6
4 3 3 2 2 1 0 -0 -1 -2 -2 -2 -3 -4 -5 -5 -6 -7 -7 -7 -8 -8 -8 -8 -8 -8 -8 -8 -8 -9 -8 -8 -8 -8 -8 -8 -7 -7 -7 -7 -6 -6 -7
4 3 2 2 1 -0 -1 -1 -1 -2 -2 -3 -3 -4 -5 -6 -7 -7 -7 -8 -8 -9 -9 -9 -9 -9 -9 -9 -9 -9 -9 -8 -8 -8 -8 -8 -8 -7 -7 -7 -7 -7 -7
3 2 2 1 -0 -0 -1 -1 -2 -2 -3 -3 -4 -5 -6 -6 -7 -8 -7 -8 -9 -9 -9 -10 -10 -10 -10 -9 -10 -9 -9 -9 -8 -8 -8 -8 -8 -8 -8 -7 -7 -7 -7

GFSMW_850_temp_108.txt.gz
Temp
7 7 6 6 6 7 8 8 8 8 8 9 9 10 11 11 11 11 12 13 13 13 13 11 11 11 12 12 12 12 12 12 13 12 12 12 12 12 13 13 12 12 12
6 6 5 4 4 6 7 8 7 7 8 8 9 10 10 10 11 11 11 11 12 12 11 11 11 11 11 11 11 11 12 11 12 12 11 11 11 11 11 12 12 12 11
5 4 4 5 4 5 6 7 5 6 7 7 8 9 9 10 10 11 12 11 11 11 10 10 10 10 10 10 11 11 11 11 11 11 11 11 11 12 12 12 13 13 12
5 3 3 4 3 4 5 6 6 5 6 7 7 8 8 10 10 9 10 10 10 10 10 10 10 10 9 9 9 10 10 11 10 11 11 11 11 11 12 12 12 13 12
4 3 4 4 3 4 4 5 6 5 6 6 7 6 8 10 9 9 11 9 9 9 9 9 9 10 10 10 10 9 9 10 10 10 11 11 11 10 11 10 11 12 12
4 3 4 3 3 3 3 4 5 5 4 5 6 7 7 9 9 9 8 8 8 8 8 8 8 8 9 9 8 9 9 9 10 10 10 10 10 10 10 11 10 11 11
3 3 3 3 3 3 2 3 3 3 4 5 5 6 6 7 7 7 6 6 7 7 7 7 7 8 8 8 7 7 8 9 10 10 10 10 10 10 10 10 10 10 10
2 2 2 3 3 3 3 3 3 3 4 4 4 4 5 6 6 5 5 6 7 6 6 7 7 6 7 7 8 6 7 7 7 8 9 10 10 10 10 10 10 9 9
2 2 2 3 4 4 4 4 4 4 4 4 4 4 4 5 5 5 5 6 7 5 5 5 6 7 7 7 6 6 7 7 7 6 6 7 8 9 9 9 9 9 8
2 2 3 3 4 4 4 4 4 4 4 4 4 5 4 4 4 4 5 5 5 4 5 5 6 6 6 5 6 7 7 6 6 6 6 5 7 7 7 8 8 8 8
2 3 4 4 4 4 4 4 4 4 4 4 4 4 4 4 4 4 3 3 3 4 4 4 4 4 4 5 5 5 4 4 5 5 4 3 5 6 6 7 6 6 6
3 4 4 4 5 4 4 4 4 4 4 4 4 4 4 4 4 4 4 4 4 3 3 3 3 3 3 3 3 3 4 4 4 3 4 4 4 5 5 5 5 5 5
3 4 4 5 5 4 4 4 4 4 4 4 3 3 3 3 3 3 3 3 3 3 2 2 2 2 2 1 2 2 2 2 2 2 2 2 3 4 4 4 4 5 4
5 5 6 6 5 4 4 4 4 4 4 3 3 3 3 3 3 3 3 3 2 2 1 1 1 0 0 -1 1 1 1 1 1 1 1 1 1 2 2 3 3 4 4
6 7 7 6 5 5 4 4 4 4 4 3 3 3 3 2 2 2 1 1 1 1 1 1 1 0 0 -1 -1 -1 -0 -0 0 -0 -0 0 0 0 0 -0 1 1 2
8 8 7 6 6 5 4 4 4 4 3 3 2 2 1 1 1 2 2 2 1 1 1 1 0 0 0 -0 -1 -1 -1 -0 -0 -0 -0 -1 -1 -2 -2 -1 -1 -1 -1
9 8 8 7 6 5 4 4 4 3 3 2 2 1 2 1 1 1 0 -0 -0 -1 -1 -2 -2 -2 -2 -3 -3 -3 -2 -2 -2 -2 -1 -1 -1 -2 -3 -3 -2 -1 -1
9 9 8 7 6 5 4 4 4 3 3 2 1 1 1 1 1 0 -0 -1 -1 -2 -2 -2 -3 -3 -3 -4 -4 -5 -5 -5 -4 -4 -4 -4 -4 -3 -3 -3 -2 -2 -2
10 9 8 7 6 5 5 4 3 3 2 1 1 1 1 0 0 -1 -2 -3 -3 -3 -3 -4 -4 -5 -4 -5 -5 -6 -6 -6 -5 -5 -5 -5 -4 -4 -4 -5 -5 -3 -2
9 8 7 6 5 5 4 3 2 2 1 2 1 1 0 -0 -1 -2 -2 -3 -3 -3 -4 -4 -5 -6 -6 -6 -6 -6 -6 -7 -7 -7 -6 -6 -5 -5 -5 -5 -6 -6 -6
8 7 6 6 5 4 3 3 2 2 2 1 1 0 -0 -1 -2 -3 -3 -3 -4 -4 -5 -5 -5 -6 -6 -6 -7 -7 -7 -7 -7 -7 -7 -7 -7 -7 -6 -6 -6 -6 -6
7 6 5 5 4 3 3 2 2 2 1 1 0 -1 -2 -3 -3 -3 -3 -4 -5 -5 -6 -6 -6 -6 -6 -7 -7 -8 -7 -7 -7 -8 -8 -8 -8 -7 -7 -6 -6 -6 -6
6 5 5 4 4 3 3 2 2 2 1 0 -1 -2 -2 -3 -3 -4 -5 -6 -6 -7 -7 -7 -7 -7 -6 -6 -7 -9 -9 -9 -8 -8 -8 -8 -8 -8 -8 -7 -7 -7 -6
6 5 4 4 3 3 2 2 2 1 0 -1 -1 -2 -3 -3 -4 -5 -6 -6 -7 -7 -8 -8 -9 -9 -8 -8 -8 -9 -9 -9 -9 -8 -8 -8 -8 -8 -7 -7 -7 -7 -7
5 4 4 3 2 2 2 1 1 -0 -1 -1 -2 -3 -3 -4 -4 -5 -6 -7 -7 -8 -9 -9 -9 -9 -9 -9 -9 -9 -9 -9 -9 -9 -8 -8 -8 -8 -8 -8 -8 -8 -7
4 4 3 3 2 2 1 0 -0 -1 -1 -2 -2 -3 -4 -4 -5 -6 -6 -7 -7 -8 -9 -9 -9 -9 -9 -9 -9 -9 -9 -9 -9 -8 -8 -9 -8 -8 -8 -8 -8 -8 -8

GFSMW_850_temp_114.txt.gz
Temp
7 7 8 7 7 7 7 7 8 8 8 9 9 9 8 8 9 9 10 10 10 10 10 11 11 12 11 11 11 11 12 12 11 11 12 12 13 13 13 14 15 14 14
7 7 7 6 6 5 4 6 7 7 8 8 8 8 7 7 8 8 8 9 9 9 10 10 10 10 10 11 12 12 12 12 11 10 10 10 12 12 13 13 13 13 14
7 7 6 5 4 5 4 4 6 6 7 7 7 8 7 7 8 9 8 9 8 8 8 9 9 9 9 9 10 11 11 11 11 10 9 10 11 11 11 11 11 11 12
6 5 5 4 5 5 5 5 5 6 7 7 5 6 6 6 6 6 6 7 7 7 7 8 8 8 9 9 8 10 9 10 9 10 9 9 9 9 9 10 10 10 11
5 4 4 5 5 5 5 4 4 4 6 7 5 5 5 5 5 6 6 7 7 7 8 8 7 7 7 7 9 8 8 8 8 7 7 8 8 8 9 9 10 10 10
4 4 4 4 5 5 5 4 4 4 5 5 6 5 5 5 5 5 5 6 6 6 7 7 7 7 6 7 7 7 7 7 7 6 6 6 6 6 5 6 7 9 9
3 4 4 4 5 4 4 4 4 4 4 4 5 5 4 4 4 5 5 5 5 6 6 6 7 7 6 6 6 6 6 6 6 5 5 5 5 5 5 4 5 4 8
3 3 4 4 4 4 4 4 4 4 4 5 5 5 5 5 4 4 3 4 4 4 5 5 5 5 5 5 5 5 5 5 5 5 5 4 4 4 4 3 3 4 6
3 3 3 4 4 4 4 4 4 5 5 5 5 5 5 4 4 4 3 3 3 3 3 3 3 3 4 4 4 4 4 4 3 4 4 4 4 3 2 2 3 2 3
3 3 4 4 4 5 4 5 5 5 5 5 5 5 4 4 4 3 3 3 3 3 3 3 3 3 3 3 3 3 3 2 2 2 2 2 1 1 1 1 0 2 0
5 5 5 4 4 5 5 5 5 5 5 5 4 4 4 3 3 3 3 3 3 3 3 3 3 3 3 3 3 2 2 2 1 1 1 1 1 1 0 1 1 1 -1
5 5 4 5 5 5 5 5 5 5 5 5 5 4 4 4 4 4 3 3 3 2 2 2 2 1 1 1 1 1 1 1 1 0 0 0 0 0 -0 -0 -1 -1 -0
6 5 5 5 6 5 5 5 5 5 5 5 5 5 4 3 3 3 2 2 2 2 2 1 1 1 0 -0 -1 -1 -1 -1 -1 -1 -1 -1 -1 -1 -2 -2 -2 -2 -2
7 7 6 6 6 6 6 5 5 5 5 5 4 4 3 3 2 2 2 2 1 1 0 -0 -1 -1 -1 -1 -1 -2 -1 -1 -1 -2 -2 -2 -2 -3 -3 -4 -3 -4 -3
7 7 7 7 7 6 6 6 5 5 5 4 4 4 3 3 2 2 2 2 1 1 0 -0 -1 -1 -1 -1 -2 -3 -3 -4 -3 -3 -2 -2 -3 -3 -4 -4 -4 -4 -4
8 8 8 8 8 7 7 6 5 5 5 4 4 3 3 3 2 2 1 1 1 0 0 -0 -0 -1 -1 -2 -2 -3 -3 -3 -4 -4 -4 -3 -3 -3 -4 -4 -4 -5 -5
10 10 9 9 8 8 7 6 6 5 5 4 4 3 3 2 2 1 1 1 0 -0 -1 -1 -1 -2 -2 -3 -3 -4 -5 -5 -5 -5 -5 -4 -5 -4 -4 -4 -4 -5 -5
11 11 10 9 9 8 7 7 6 5 4 4 4 3 2 2 1 1 1 0 -0 -1 -1 -2 -2 -2 -3 -3 -4 -4 -5 -5 -5 -5 -5 -6 -6 -6 -7 -7 -6 -6 -5
12 11 11 10 9 8 8 7 6 5 4 4 3 2 2 1 1 1 -0 -1 -1 -2 -2 -3 -3 -3 -4 -4 -5 -6 -6 -6 -6 -6 -6 -6 -6 -6 -7 -7 -7 -7 -6
10 10 10 10 9 8 8 7 5 5 4 4 3 2 2 1 0 -0 -1 -1 -2 -2 -3 -4 -4 -5 -5 -5 -6 -6 -6 -6 -7 -7 -7 -7 -8 -8 -7 -7 -7 -7 -7
10 10 10 9 9 8 7 6 5 5 4 3 2 1 1 1 0 -0 -1 -2 -2 -3 -4 -4 -5 -5 -5 -5 -6 -6 -7 -8 -8 -8 -8 -8 -8 -8 -8 -7 -7 -8 -7
9 9 9 8 8 7 6 5 5 4 3 2 2 1 1 0 -0 -1 -2 -3 -3 -4 -4 -4 -4 -5 -5 -6 -6 -7 -8 -9 -8 -9 -9 -8 -8 -8 -8 -8 -8 -8 -8
8 8 7 7 6 6 5 4 4 3 3 2 1 1 0 -0 -1 -2 -2 -3 -4 -4 -4 -5 -5 -5 -5 -6 -7 -8 -8 -9 -9 -9 -9 -9 -9 -8 -9 -8 -9 -8 -8
7 7 6 6 6 5 4 4 3 2 2 2 1 0 -0 -1 -1 -2 -3 -4 -4 -5 -5 -6 -6 -6 -6 -7 -7 -8 -8 -9 -9 -9 -9 -9 -9 -9 -9 -9 -9 -8 -9
7 6 6 6 5 4 4 3 2 2 2 1 1 0 -0 -1 -2 -3 -3 -4 -5 -6 -6 -7 -7 -8 -8 -8 -9 -9 -9 -9 -9 -9 -9 -9 -9 -9 -10 -10 -10 -9 -9
6 6 5 5 4 3 3 2 2 1 1 1 0 -0 -1 -1 -2 -3 -3 -5 -5 -6 -7 -7 -8 -8 -9 -10 -9 -9 -9 -9 -9 -9 -10 -9 -10 -10 -10 -11 -11 -10 -10